Time,TemperatureF,DewpointF,PressureIn,WindDirection,WindDirectionDegrees,WindSpeedMPH,WindSpeedGustMPH,Humidity,HourlyPrecipIn,Conditions,Clouds,dailyrainin,SoftwareType,DateUTC
2013-10-02 00:21:00,58.0,50.0,29.89,SW,229,0.0,0.0,74,0.00,,,0.00,,2013-10-02 07:21:00,
2013-10-02 00:52:00,58.0,50.0,29.89,NW,316,0.0,2.0,76,0.00,,,0.00,,2013-10-02 07:52:00,
2013-10-02 01:21:00,57.0,51.0,29.89,NW,316,0.0,0.0,80,0.00,,,0.00,,2013-10-02 08:21:00,
2013-10-02 01:52:00,56.0,50.0,29.89,NW,316,0.0,0.0,81,0.00,,,0.00,,2013-10-02 08:52:00,
2013-10-02 02:21:00,55.0,50.0,29.89,NW,313,0.0,0.0,82,0.00,,,0.00,,2013-10-02 09:21:00,
2013-10-02 02:54:00,54.0,50.0,29.89,NW,314,0.0,0.0,85,0.00,,,0.00,,2013-10-02 09:54:00,
2013-10-02 03:02:00,54.0,50.0,29.89,NW,314,0.0,0.0,85,0.00,,,0.00,,2013-10-02 10:02:00,
2013-10-02 03:22:00,55.0,50.0,29.88,NW,314,0.0,1.0,82,0.00,,,0.00,,2013-10-02 10:22:00,
2013-10-02 03:52:00,55.0,48.0,29.88,NW,314,0.0,0.0,77,0.00,,,0.00,,2013-10-02 10:52:00,
2013-10-02 04:21:00,55.0,47.0,29.89,WNW,294,0.0,1.0,74,0.00,,,0.00,,2013-10-02 11:21:00,
2013-10-02 04:52:00,55.0,47.0,29.89,West,271,0.0,1.0,74,0.00,,,0.00,,2013-10-02 11:52:00,
2013-10-02 05:11:00,55.0,46.0,29.89,NNE,32,0.0,3.0,71,0.00,,,0.00,,2013-10-02 12:11:00,
2013-10-02 05:21:00,55.0,46.0,29.89,NE,39,0.0,1.0,71,0.00,,,0.00,,2013-10-02 12:21:00,
2013-10-02 05:52:00,55.0,45.0,29.90,NE,36,0.0,1.0,70,0.00,,,0.00,,2013-10-02 12:52:00,
2013-10-02 06:22:00,54.0,45.0,29.90,NW,325,0.0,1.0,72,0.00,,,0.00,,2013-10-02 13:22:00,
2013-10-02 06:52:00,54.0,46.0,29.91,NW,326,0.0,0.0,73,0.00,,,0.00,,2013-10-02 13:52:00,
2013-10-02 07:21:00,53.0,45.0,29.92,NW,325,0.0,0.0,74,0.00,,,0.00,,2013-10-02 14:21:00,
2013-10-02 07:52:00,55.0,46.0,29.93,NW,324,0.0,0.0,72,0.00,,,0.00,,2013-10-02 14:52:00,
2013-10-02 08:21:00,56.0,46.0,29.93,NNW,336,0.0,1.0,70,0.00,,,0.00,,2013-10-02 15:21:00,
2013-10-02 08:54:00,57.0,47.0,29.94,NE,37,0.0,2.0,68,0.00,,,0.00,,2013-10-02 15:54:00,
2013-10-02 09:22:00,59.0,47.0,29.96,NNW,337,1.0,2.0,65,0.00,,,0.00,,2013-10-02 16:22:00,
2013-10-02 09:32:00,59.0,47.0,29.96,NNW,337,1.0,2.0,65,0.00,,,0.00,,2013-10-02 16:32:00,
2013-10-02 09:52:00,64.0,47.0,29.96,West,274,0.0,2.0,55,0.00,,,0.00,,2013-10-02 16:52:00,
2013-10-02 10:23:00,66.0,46.0,29.96,NNE,19,1.0,4.0,49,0.00,,,0.00,,2013-10-02 17:23:00,
2013-10-02 10:52:00,68.0,46.0,29.96,North,11,0.0,5.0,45,0.00,,,0.00,,2013-10-02 17:52:00,
2013-10-02 11:12:00,69.0,45.0,29.96,NE,54,1.0,5.0,42,0.00,,,0.00,,2013-10-02 18:12:00,
2013-10-02 11:21:00,69.0,44.0,29.96,North,350,1.0,5.0,41,0.00,,,0.00,,2013-10-02 18:21:00,
2013-10-02 11:52:00,71.0,44.0,29.95,NNW,348,2.0,5.0,38,0.00,,,0.00,,2013-10-02 18:52:00,
2013-10-02 12:21:00,74.0,45.0,29.95,WSW,249,0.0,3.0,36,0.00,,,0.00,,2013-10-02 19:21:00,
2013-10-02 12:52:00,76.0,46.0,29.93,ENE,63,1.0,3.0,34,0.00,,,0.00,,2013-10-02 19:52:00,
2013-10-02 13:22:00,78.0,47.0,29.93,SE,139,0.0,4.0,33,0.00,,,0.00,,2013-10-02 20:22:00,
2013-10-02 13:52:00,78.0,47.0,29.91,WSW,239,3.0,6.0,33,0.00,,,0.00,,2013-10-02 20:52:00,
2013-10-02 14:22:00,80.0,47.0,29.90,NW,305,0.0,4.0,31,0.00,,,0.00,,2013-10-02 21:22:00,
2013-10-02 14:54:00,79.0,44.0,29.88,ESE,120,2.0,7.0,29,0.00,,,0.00,,2013-10-02 21:54:00,
2013-10-02 15:23:00,79.0,44.0,29.88,WSW,252,2.0,5.0,29,0.00,,,0.00,,2013-10-02 22:23:00,
2013-10-02 15:53:00,79.0,43.0,29.88,NE,51,0.0,7.0,28,0.00,,,0.00,,2013-10-02 22:53:00,
2013-10-02 16:22:00,80.0,43.0,29.88,SW,235,4.0,7.0,27,0.00,,,0.00,,2013-10-02 23:22:00,
2013-10-02 16:52:00,80.0,44.0,29.88,SW,236,1.0,5.0,28,0.00,,,0.00,,2013-10-02 23:52:00,
2013-10-02 17:22:00,80.0,47.0,29.87,NNW,345,0.0,4.0,31,0.00,,,0.00,,2013-10-03 00:22:00,
2013-10-02 17:52:00,78.0,47.0,29.87,WSW,240,0.0,2.0,34,0.00,,,0.00,,2013-10-03 00:52:00,
2013-10-02 18:22:00,77.0,46.0,29.87,WSW,240,3.0,7.0,34,0.00,,,0.00,,2013-10-03 01:22:00,
2013-10-02 18:52:00,74.0,49.0,29.88,WSW,256,4.0,7.0,41,0.00,,,0.00,,2013-10-03 01:52:00,
2013-10-02 19:22:00,72.0,49.0,29.87,SW,231,2.0,7.0,44,0.00,,,0.00,,2013-10-03 02:22:00,
2013-10-02 20:22:00,68.0,48.0,29.88,WSW,248,3.0,8.0,48,0.00,,,0.00,,2013-10-03 03:22:00,
2013-10-02 20:44:00,67.0,47.0,29.88,SW,236,3.0,8.0,49,0.00,,,0.00,,2013-10-03 03:44:00,
2013-10-02 20:54:00,66.0,47.0,29.89,SW,222,1.0,5.0,50,0.00,,,0.00,,2013-10-03 03:54:00,
2013-10-02 21:24:00,65.0,46.0,29.90,WSW,252,1.0,3.0,51,0.00,,,0.00,,2013-10-03 04:24:00,
2013-10-02 21:53:00,64.0,47.0,29.90,SW,215,0.0,2.0,54,0.00,,,0.00,,2013-10-03 04:53:00,
2013-10-02 22:13:00,63.0,47.0,29.91,WSW,239,1.0,3.0,55,0.00,,,0.00,,2013-10-03 05:13:00,
2013-10-02 22:23:00,63.0,47.0,29.91,WSW,239,1.0,3.0,55,0.00,,,0.00,,2013-10-03 05:23:00,
2013-10-02 22:52:00,61.0,47.0,29.91,WSW,248,0.0,1.0,59,0.00,,,0.00,,2013-10-03 05:52:00,
2013-10-02 23:22:00,62.0,46.0,29.93,NE,39,3.0,8.0,55,0.00,,,0.00,,2013-10-03 06:22:00,
2013-10-02 23:52:00,63.0,38.0,29.93,North,6,4.0,9.0,40,0.00,,,0.00,,2013-10-03 06:52:00,